Location: Montreal
(45.5087°N, 73.5540°W)
Time: 22:20:11
(UTC-05:00)

Tiangong 1 - Visible Passes

Search period start: 15 December 2017 00:00
Search period end: 25 December 2017 00:00
Orbit: 275 x 301 km, 42.8° (Epoch: 15 December)

Date Brightness Start Highest point End Pass type
(mag) Time Alt. Az. Time Alt. Az. Time Alt. Az.
20 Dec 3.8 05:44:49 10° SSE 05:45:27 11° SSE 05:46:07 10° SE visible
21 Dec 3.2 05:47:32 12° SSW 05:48:51 17° SSE 05:50:35 10° ESE visible
22 Dec 2.5 05:51:16 19° SSW 05:52:10 24° SSE 05:54:19 10° ESE visible
23 Dec 1.9 05:54:45 27° SSW 05:55:26 32° SSE 05:57:44 10° ESE visible
24 Dec 1.5 05:58:01 33° SSW 05:58:36 40° S 06:00:59 10° ESE visible
